| time (UTC) | temp F | wind direction | speed MPH | gust MPH | rain 1hr in | rain 24hr in | rain mn in | humidity % | barometer mb |
| 20260510153034 | 63 | 0 | 0.0 | 0.0 | 0.00 | 0.36 | 0.22 | 44 | 1008.4 |
| 20260510151533 | 64 | 0 | 0.0 | 2.0 | 0.00 | 0.36 | 0.22 | 44 | 1008.7 |
| 20260510150040 | 63 | 265 | 1.0 | 5.0 | 0.00 | 0.36 | 0.22 | 44 | 1008.8 |
| 20260510144541 | 62 | 215 | 3.0 | 6.0 | 0.00 | 0.36 | 0.22 | 44 | 1009.0 |
| 20260510143037 | 61 | 252 | 2.0 | 7.0 | 0.00 | 0.36 | 0.22 | 43 | 1009.5 |
| 20260510141534 | 59 | 266 | 1.0 | 6.0 | 0.00 | 0.36 | 0.22 | 46 | 1009.9 |
| 20260510140034 | 58 | 176 | 4.0 | 11.0 | 0.00 | 0.36 | 0.22 | 49 | 1010.1 |
| 20260510134530 | 57 | 213 | 5.0 | 10.0 | 0.02 | 0.36 | 0.22 | 51 | 1009.9 |
| 20260510133030 | 56 | 193 | 3.0 | 10.0 | 0.22 | 0.36 | 0.22 | 52 | 1010.0 |
| 20260510131534 | 56 | 229 | 2.0 | 10.0 | 0.22 | 0.36 | 0.22 | 52 | 1011.0 |
| 20260510130034 | 56 | 276 | 7.0 | 12.0 | 0.22 | 0.35 | 0.22 | 52 | 1011.4 |
| 20260510124535 | 56 | 107 | 12.0 | 46.0 | 0.20 | 0.33 | 0.20 | 51 | 1010.8 |
| 20260510123032 | 69 | 57 | 3.0 | 7.0 | 0.00 | 0.13 | 0.00 | 32 | 1008.7 |
| 20260510121530 | 69 | 93 | 6.0 | 12.0 | 0.00 | 0.13 | 0.00 | 33 | 1008.5 |
| 20260510120036 | 69 | 81 | 6.0 | 10.0 | 0.00 | 0.13 | 0.00 | 34 | 1008.7 |
| 20260510114543 | 69 | 22 | 5.0 | 10.0 | 0.00 | 0.13 | 0.00 | 31 | 1008.7 |
| 20260510113031 | 70 | 5 | 4.0 | 11.0 | 0.00 | 0.13 | 0.00 | 31 | 1008.7 |
| 20260510111534 | 70 | 304 | 3.0 | 14.0 | 0.00 | 0.13 | 0.00 | 32 | 1008.7 |
| 20260510110030 | 70 | 303 | 0.0 | 11.0 | 0.00 | 0.13 | 0.00 | 30 | 1008.9 |
| 20260510104531 | 70 | 277 | 5.0 | 16.0 | 0.00 | 0.13 | 0.00 | 31 | 1008.9 |
| 20260510103032 | 69 | 346 | 3.0 | 13.0 | 0.00 | 0.13 | 0.00 | 35 | 1009.1 |
| 20260510101534 | 69 | 340 | 6.0 | 19.0 | 0.00 | 0.13 | 0.00 | 34 | 1009.3 |
| 20260510100051 | 69 | 323 | 4.0 | 14.0 | 0.00 | 0.13 | 0.00 | 34 | 1009.2 |
| 20260510094546 | 68 | 65 | 5.0 | 15.0 | 0.00 | 0.13 | 0.00 | 35 | 1009.4 |
| 20260510093032 | 67 | 328 | 4.0 | 12.0 | 0.00 | 0.13 | 0.00 | 37 | 1009.6 |
| 20260510091532 | 67 | 336 | 6.0 | 18.0 | 0.00 | 0.13 | 0.00 | 37 | 1009.9 |
| 20260510090041 | 65 | 338 | 9.0 | 22.0 | 0.00 | 0.13 | 0.00 | 38 | 1010.0 |
| 20260510084532 | 64 | 0 | 4.0 | 16.0 | 0.00 | 0.13 | 0.00 | 41 | 1009.8 |
| 20260510083031 | 63 | 300 | 1.0 | 12.0 | 0.00 | 0.13 | 0.00 | 43 | 1010.0 |
| 20260510081543 | 63 | 28 | 6.0 | 10.0 | 0.00 | 0.13 | 0.00 | 43 | 1010.0 |
| 20260510080032 | 63 | 349 | 5.0 | 12.0 | 0.00 | 0.13 | 0.00 | 43 | 1009.8 |
| 20260510074530 | 63 | 15 | 3.0 | 12.0 | 0.00 | 0.13 | 0.00 | 44 | 1009.8 |
| 20260510073033 | 63 | 329 | 6.0 | 14.0 | 0.00 | 0.13 | 0.00 | 43 | 1009.7 |
| 20260510071539 | 62 | 286 | 4.0 | 15.0 | 0.00 | 0.13 | 0.00 | 44 | 1009.6 |
| 20260510070038 | 61 | 311 | 3.0 | 9.0 | 0.00 | 0.13 | 0.00 | 44 | 1009.3 |
| 20260510064532 | 61 | 331 | 3.0 | 12.0 | 0.00 | 0.13 | 0.00 | 44 | 1009.1 |
| 20260510063036 | 60 | 340 | 2.0 | 9.0 | 0.00 | 0.13 | 0.00 | 44 | 1009.1 |
| 20260510061530 | 60 | 281 | 2.0 | 9.0 | 0.00 | 0.13 | 0.00 | 44 | 1009.1 |
| 20260510060033 | 59 | 0 | 0.0 | 1.0 | 0.00 | 0.13 | 0.00 | 45 | 1009.0 |
| 20260510054530 | 58 | 0 | 0.0 | 4.0 | 0.00 | 0.13 | 0.00 | 46 | 1008.8 |
| 20260510053030 | 57 | 0 | 0.0 | 2.0 | 0.00 | 0.13 | 0.00 | 51 | 1008.7 |
| 20260510051532 | 57 | 0 | 0.0 | 3.0 | 0.00 | 0.13 | 0.00 | 51 | 1008.5 |
| 20260510050035 | 58 | 0 | 0.0 | 0.0 | 0.00 | 0.13 | 0.00 | 49 | 1008.3 |
| 20260510044535 | 58 | 0 | 0.0 | 0.0 | 0.00 | 0.13 | 0.00 | 51 | 1008.4 |
| 20260510043034 | 58 | 0 | 0.0 | 0.0 | 0.00 | 0.13 | 0.00 | 50 | 1008.2 |
| 20260510041530 | 59 | 0 | 0.0 | 3.0 | 0.00 | 0.13 | 0.00 | 49 | 1008.3 |
| 20260510040031 | 59 | 0 | 0.0 | 3.0 | 0.00 | 0.13 | 0.00 | 48 | 1008.2 |
| 20260510034540 | 58 | 214 | 0.0 | 4.0 | 0.00 | 0.13 | 0.00 | 50 | 1008.2 |
| 20260510033029 | 59 | 0 | 0.0 | 4.0 | 0.00 | 0.13 | 0.00 | 50 | 1008.0 |
| 20260510031531 | 61 | 0 | 0.0 | 5.0 | 0.00 | 0.13 | 0.00 | 46 | 1008.0 |
| 20260510030032 | 60 | 215 | 3.0 | 7.0 | 0.00 | 0.13 | 0.00 | 44 | 1007.9 |
| 20260510024534 | 59 | 261 | 0.0 | 6.0 | 0.00 | 0.13 | 0.00 | 46 | 1008.2 |
| 20260510023035 | 58 | 0 | 0.0 | 2.0 | 0.00 | 0.13 | 0.00 | 48 | 1008.3 |
| 20260510021533 | 57 | 0 | 0.0 | 0.0 | 0.00 | 0.13 | 0.00 | 51 | 1008.2 |
| 20260510020030 | 57 | 0 | 0.0 | 2.0 | 0.00 | 0.13 | 0.00 | 50 | 1008.2 |
| 20260510014536 | 58 | 0 | 1.0 | 4.0 | 0.00 | 0.13 | 0.00 | 49 | 1008.1 |
| 20260510013031 | 58 | 0 | 0.0 | 4.0 | 0.00 | 0.13 | 0.00 | 48 | 1008.2 |
| 20260510011541 | 57 | 85 | 0.0 | 4.0 | 0.00 | 0.13 | 0.00 | 52 | 1008.3 |
| 20260510010031 | 57 | 0 | 0.0 | 2.0 | 0.00 | 0.13 | 0.00 | 52 | 1008.3 |
| 20260510004538 | 57 | 0 | 0.0 | 3.0 | 0.00 | 0.13 | 0.00 | 52 | 1008.5 |
| 20260510003037 | 58 | 0 | 0.0 | 3.0 | 0.00 | 0.13 | 0.00 | 51 | 1008.5 |
| 20260510001532 | 58 | 0 | 0.0 | 4.0 | 0.00 | 0.13 | 0.00 | 51 | 1008.6 |
| 20260510000055 | 58 | 177 | 1.0 | 4.0 | 0.00 | 0.13 | 0.00 | 51 | 1008.7 |
| 20260509234547 | 58 | 0 | 1.0 | 3.0 | 0.00 | 0.13 | 0.00 | 51 | 1008.7 |
| 20260509233034 | 58 | 180 | 1.0 | 3.0 | 0.00 | 0.13 | 0.00 | 51 | 1008.7 |
| 20260509231534 | 58 | 0 | 0.0 | 4.0 | 0.00 | 0.13 | 0.00 | 52 | 1008.8 |
| 20260509230037 | 58 | 0 | 2.0 | 4.0 | 0.00 | 0.13 | 0.00 | 52 | 1008.6 |
| 20260509224532 | 58 | 0 | 0.0 | 3.0 | 0.00 | 0.13 | 0.00 | 51 | 1008.7 |
| 20260509223034 | 59 | 229 | 1.0 | 5.0 | 0.00 | 0.13 | 0.00 | 51 | 1008.6 |
| 20260509221531 | 59 | 228 | 2.0 | 5.0 | 0.00 | 0.13 | 0.00 | 51 | 1008.8 |
| 20260509220030 | 59 | 121 | 0.0 | 2.0 | 0.00 | 0.13 | 0.00 | 50 | 1008.7 |
| 20260509214536 | 59 | 121 | 0.0 | 2.0 | 0.00 | 0.13 | 0.13 | 50 | 1008.6 |
| 20260509213039 | 60 | 120 | 0.0 | 4.0 | 0.00 | 0.13 | 0.13 | 50 | 1008.4 |
| 20260509211537 | 59 | 97 | 3.0 | 7.0 | 0.00 | 0.13 | 0.13 | 51 | 1008.2 |
| 20260509210041 | 59 | 0 | 1.0 | 4.0 | 0.00 | 0.13 | 0.13 | 53 | 1008.2 |
| 20260509204538 | 58 | 237 | 0.0 | 4.0 | 0.00 | 0.13 | 0.13 | 54 | 1008.3 |
| 20260509203036 | 58 | 266 | 1.0 | 3.0 | 0.00 | 0.13 | 0.13 | 55 | 1008.2 |
| 20260509201539 | 58 | 0 | 0.0 | 3.0 | 0.00 | 0.13 | 0.13 | 54 | 1008.1 |
| 20260509200038 | 58 | 0 | 0.0 | 0.0 | 0.00 | 0.13 | 0.13 | 54 | 1007.8 |
| 20260509194537 | 58 | 0 | 0.0 | 0.0 | 0.00 | 0.13 | 0.13 | 54 | 1007.7 |
| 20260509193032 | 58 | 0 | 0.0 | 3.0 | 0.00 | 0.13 | 0.13 | 54 | 1007.6 |
| 20260509191533 | 58 | 0 | 0.0 | 2.0 | 0.00 | 0.13 | 0.13 | 53 | 1007.6 |
| 20260509190036 | 59 | 238 | 0.0 | 3.0 | 0.00 | 0.13 | 0.13 | 52 | 1007.6 |
| 20260509184552 | 59 | 0 | 0.0 | 0.0 | 0.00 | 0.13 | 0.13 | 52 | 1007.6 |
| 20260509183036 | 60 | 0 | 0.0 | 4.0 | 0.02 | 0.13 | 0.13 | 51 | 1007.5 |
| 20260509181539 | 60 | 0 | 0.0 | 2.0 | 0.11 | 0.13 | 0.13 | 51 | 1007.7 |
| 20260509180031 | 59 | 207 | 3.0 | 8.0 | 0.13 | 0.13 | 0.13 | 51 | 1007.8 |
| 20260509174536 | 60 | 0 | 2.0 | 4.0 | 0.13 | 0.13 | 0.13 | 52 | 1007.8 |
| 20260509173036 | 61 | 333 | 3.0 | 13.0 | 0.11 | 0.11 | 0.11 | 51 | 1008.2 |
| 20260509171536 | 65 | 61 | 12.0 | 29.0 | 0.01 | 0.01 | 0.01 | 46 | 1008.4 |
| 20260509170038 | 70 | 40 | 4.0 | 12.0 | 0.00 | 0.00 | 0.00 | 39 | 1007.5 |
| 20260509164533 | 71 | 63 | 3.0 | 12.0 | 0.00 | 0.01 | 0.00 | 38 | 1006.8 |
| 20260509163034 | 72 | 5 | 3.0 | 10.0 | 0.00 | 0.01 | 0.00 | 39 | 1006.2 |
| 20260509161533 | 72 | 326 | 4.0 | 12.0 | 0.00 | 0.01 | 0.00 | 38 | 1006.1 |
| 20260509160034 | 72 | 318 | 5.0 | 16.0 | 0.00 | 0.01 | 0.00 | 36 | 1006.2 |
| 20260509154530 | 73 | 360 | 7.0 | 21.0 | 0.00 | 0.74 | 0.00 | 36 | 1006.0 |